Terug naar catalogus

SL-8 DEB

ActiefLEO
NORAD 60605·DEBRIS·🇷🇺 Russia

Gelanceerd Feb 12, 1991 vanaf Plesetsk Cosmodrome

Loading…

Volgende Passages (komende 24 uur)

TLE

VersSource: Space-Track

Epoch: Sep 14, 2026, 00:40 UTC

1 60605U 91009EA  26257.02815986  .00000036  00000-0  46445-3 0  9992
2 60605  74.0516 124.4425 0173071 177.4155 182.7814 12.19948118570189

Volg SL-8 DEB in realtime met AllMySat

Download on the App Store